TimeEDT,TemperatureF,Dew PointF,Humidity,Sea Level PressureIn,VisibilityMPH,Wind Direction,Wind SpeedMPH,Gust SpeedMPH,PrecipitationIn,Events,Conditions,WindDirDegrees,DateUTC
12:53 AM,75.0,71.1,87,30.11,10.0,SW,6.9,-,N/A,,Scattered Clouds,220,2013-07-20 04:53:00
1:53 AM,73.9,71.1,91,30.10,10.0,South,5.8,-,N/A,,Clear,190,2013-07-20 05:53:00
2:53 AM,73.9,70.0,87,30.09,10.0,SSW,4.6,-,N/A,,Clear,200,2013-07-20 06:53:00
3:53 AM,73.9,70.0,87,30.07,10.0,South,4.6,-,N/A,,Mostly Cloudy,190,2013-07-20 07:53:00
4:53 AM,73.0,70.0,90,30.06,10.0,SW,5.8,-,N/A,,Scattered Clouds,220,2013-07-20 08:53:00
5:53 AM,73.9,71.1,91,30.08,10.0,SSW,4.6,-,N/A,,Mostly Cloudy,210,2013-07-20 09:53:00
6:53 AM,73.9,71.1,91,30.09,10.0,SSW,4.6,-,N/A,,Mostly Cloudy,210,2013-07-20 10:53:00
7:53 AM,75.0,71.1,87,30.08,10.0,SSW,8.1,-,N/A,,Mostly Cloudy,210,2013-07-20 11:53:00
8:53 AM,78.1,72.0,81,30.09,10.0,SW,5.8,-,N/A,,Mostly Cloudy,230,2013-07-20 12:53:00
9:53 AM,79.0,72.0,79,30.10,10.0,WSW,3.5,-,N/A,,Overcast,250,2013-07-20 13:53:00
10:53 AM,82.0,72.0,71,30.11,10.0,Calm,Calm,-,N/A,,Overcast,0,2013-07-20 14:53:00
11:53 AM,84.0,71.1,65,30.10,10.0,South,9.2,-,N/A,,Mostly Cloudy,180,2013-07-20 15:53:00
12:53 PM,86.0,71.1,61,30.08,10.0,SSW,6.9,-,N/A,,Mostly Cloudy,210,2013-07-20 16:53:00
1:53 PM,86.0,70.0,59,30.05,10.0,SSW,11.5,-,N/A,,Mostly Cloudy,200,2013-07-20 17:53:00
2:29 PM,77.0,71.6,83,30.06,10.0,WSW,11.5,-,0.02,Rain-Thunderstorm,Light Thunderstorms and Rain,250,2013-07-20 18:29:00
2:53 PM,78.1,72.0,81,30.04,10.0,SW,3.5,-,0.02,Rain-Thunderstorm,Light Thunderstorms and Rain,220,2013-07-20 18:53:00
3:11 PM,78.8,71.6,78,30.03,10.0,SSW,6.9,-,0.00,Rain,Light Rain,210,2013-07-20 19:11:00
3:53 PM,79.0,71.1,77,30.03,10.0,SSW,5.8,-,0.00,Rain,Light Rain,210,2013-07-20 19:53:00
4:53 PM,82.0,73.0,74,30.01,10.0,SSE,10.4,-,0.00,Rain,Light Rain,160,2013-07-20 20:53:00
5:53 PM,81.0,71.1,72,30.00,10.0,South,12.7,-,N/A,,Mostly Cloudy,170,2013-07-20 21:53:00
6:29 PM,80.6,71.6,74,30.01,10.0,WSW,12.7,19.6,N/A,Thunderstorm,Thunderstorm,250,2013-07-20 22:29:00
6:53 PM,75.9,72.0,87,30.02,10.0,WSW,10.4,-,N/A,Thunderstorm,Thunderstorm,240,2013-07-20 22:53:00
7:46 PM,75.2,69.8,83,30.03,10.0,SW,8.1,-,N/A,,Mostly Cloudy,220,2013-07-20 23:46:00
7:53 PM,75.0,70.0,84,30.03,10.0,SSW,8.1,-,N/A,,Mostly Cloudy,210,2013-07-20 23:53:00
8:53 PM,73.9,71.1,91,30.04,10.0,South,6.9,-,0.00,Rain,Light Rain,180,2013-07-21 00:53:00
9:53 PM,73.9,71.1,91,30.04,10.0,South,6.9,-,0.00,,Mostly Cloudy,190,2013-07-21 01:53:00
10:53 PM,73.9,71.1,91,30.07,10.0,SSW,8.1,-,N/A,,Overcast,200,2013-07-21 02:53:00
11:53 PM,73.9,71.1,91,30.07,10.0,SSW,10.4,21.9,N/A,,Scattered Clouds,210,2013-07-21 03:53:00